Find Starlink 30841

NORAD ID: 58208 Int'l Des: 2023-170 Owner: SPXS Country: US Constellation: starlink operational
LEOCIRCULAR

現在のビュー

3D地球を読み込み中...

About Starlink 30841

Starlink 30841 (NORAD 58208) is a starlink constellation satellite (v2 mini) launched Nov 4, 2023 by SPXS of US. It operates in LEO, CIRCULAR orbit with a mass of 730.00 kg.

Starlink 30841について

説明を読み込み中...

次回通過

Passes for default location (London). Set your location on the main map for personalized predictions.

高度履歴

Loading altitude history...

軌道要素

1 58208U 23170C 26165.83425907 -.00001239 00000-0 -35506-4 0 9994
2 58208 43.0049 5.8339 0001861 263.8573 96.2067 15.27572474145153
Epoch: Jun 14, 2026 • Age: 24 hours

現在のステータス

高度 482.6 km
速度 7.63 km/s
衛星直下点 14.20°N, 177.03°E
打ち上げ日 Nov 4, 2023
運用期間 2.6 years
タイプ internet

技術仕様

分類 Payload
質量 730.00 kg
乾燥質量 700.00 kg
総質量 730.00 kg
長さ 0.30 m
直径 4.10 m
スパン 29.00 m
形状 Box + pan
製造者 SPXS
バスタイプ Starlink V2M
フェーズステータス In Orbit
所有者/国 SPXS/US

Most Searched